WICT2: Wichita River At Wichita Falls, TX

                                SHEF ID:       WICT2     Wichita Rv at Wichita Falls, TX
STATION TYPE:
Regulating: Stage = 18.50, Flow = 5482

PRECIP STAGE RIV-FLOW WTR-TEMP CONDUCT BAT-LOAD
in ft cfs F umho/cm volt
Ccp-Rev Ccp-Rev Ccp-Rev Ccp-Rev Ccp-Rev Ccp-Rev
(America/Chicago)
04/28 00:00 ---- 2.16 38 79.74 5180 12.04
04/28 01:00 ---- 2.15 37 79.05 5234 12.01
04/28 02:00 ---- 2.16 38 78.44 5283 11.99
04/28 03:00 ---- 2.15 37 77.83 5310 11.98
04/28 04:00 ---- 2.15 37 77.25 5333 11.95
04/28 05:00 ---- 2.15 37 76.64 5344 11.94
04/28 06:00 ---- 2.15 37 76.14 5348 11.94
04/28 07:00 ---- 2.15 37 75.70 5335 11.91
04/28 08:00 ---- 2.16 38 75.29 5341 11.91
04/28 09:00 ---- 2.15 37 74.64 5326 11.90
04/28 10:00 ---- 2.15 37 74.98 5361 12.54
04/28 11:00 ---- 2.15 37 75.40 5385 12.57
04/28 12:00 ---- 2.12 35 76.08 5375 12.93
04/28 13:00 ---- 2.11 34 77.88 5431 12.70
04/28 14:00 ---- 2.13 36 77.76 5463 12.46
04/28 15:00 ---- 2.15 37 78.98 5475 12.40
04/28 16:00 ---- 2.14 37 80.91 5452 12.34
04/28 17:00 ---- 2.16 38 81.55 5440 12.26
04/28 18:00 ---- 2.15 37 81.59 5389 12.20
04/28 19:00 ---- 2.16 38 80.94 5449 12.15
04/28 20:00 ---- 2.16 38 80.17 5532 12.05
04/28 21:00 ---- 2.16 38 79.11 5546 12.09
04/28 22:00 ---- 2.16 38 78.03 5483 12.08
04/28 23:00 ---- 2.17 39 77.34 5447 12.06
Data processed at Wed 29Apr2026 04:58 GMT

NOTICE: If you are parsing this page

Please convert to using our Data API. Starting early 2026 we will be migrating to: https://water.usace.army.mil with modern pages rendered in JavaScript. When this migration completes you will no longer be able to scrape this page! CWMSDataAPI (CDA)

Timeseries IDs (TSIDs)

TSIDs used from left to right in the data table
WFAL.Precip-Inc.Total.1Hour.1Hour.Ccp-Rev
WFAL.Stage.Inst.1Hour.0.Ccp-Rev
WFAL.Flow.Inst.1Hour.0.Ccp-Rev
WFAL.Temp-Water.Inst.1Hour.0.Ccp-Rev
WFAL.Cond-Water.Inst.1Hour.0.Ccp-Rev
WFAL.Volt-Battery Load.Inst.1Hour.0.Ccp-Rev

                            

All information presented herein is the property of the government of the United States of America and may be revised or deleted at any time without prior notice. Dissemination of this information without the expressed written consent of the Public Affairs Office, Tulsa District U.S. Army Corps of Engineers is strictly prohibited. These data are gathered electronically and, as presented, have NOT undergone any form of quality control. These data are NOT guaranteed to be valid or correct.